Weather History for KDCU - December, 2013

Change the Weather History Date:

Sunday, December 15, 2013

  Actual Average Record
Temperature  
Mean Temperature 34 °F -  
Max Temperature 37 °F 51 °F 74 °F (1975)
Min Temperature 30 °F 33 °F 12 °F (1963)
Degree Days  
Heating Degree Days 32    
Moisture  
Dew Point 29 °F    
Average Humidity 81    
Maximum Humidity 87    
Minimum Humidity 75    
Precipitation  
Precipitation 0.00 in - - ()
Sea Level Pressure  
Sea Level Pressure 30.19 in    
Wind  
Wind Speed 10 mph (NW)    
Max Wind Speed 15 mph    
Max Gust Speed 20 mph    
Visibility 9 miles    
Events      
Averages and records for this station are not official NWS values.
T = Trace of Precipitation, MM = Missing Value Source: NWS Daily Summary

Daily Weather History Graph

Daily Weather History Graph

Search for Another Location

Airport or City:

Trip Planner

Search our weather history database for the weather conditions in past years. The results will help you decide how hot, cold, wet, or windy it might be!

Date:

Astronomy

Dec. 15, 2013 Rise Set
Actual Time 6:47 AM CST 4:38 PM CST
Civil Twilight 6:19 AM CST 5:06 PM CST
Nautical Twilight 5:48 AM CST 5:38 PM CST
Astronomical Twilight 5:17 AM CST 6:08 PM CST
Moon 3:39 PM CST (12/15) 5:06 AM CST (12/15)
Length of Visible Light 10h 46m
Length of Day
9h 50m
Waxing Gibbous, 98% of the Moon is Illuminated
Dec 15
Waxing Gibbous
Dec 17
Full
Dec 25
Last Quarter
Jan 1
New
Jan 7
First Quarter

Hourly Weather History & Observations

Time (CST) Temp. Windchill Dew Point Humidity Pressure Visibility Wind Dir Wind Speed Gust Speed Precip Events Conditions
12:14 AM 37.4 °F 29.3 °F 33.8 °F 87% 30.03 in 10.0 mi NW 12.7 mph - N/A   Overcast
12:53 AM 37.9 °F 30.0 °F 32.0 °F 79% 30.04 in 10.0 mi NW 12.7 mph - N/A   Overcast
1:05 AM 37.4 °F 28.5 °F 33.8 °F 87% 30.04 in 10.0 mi NW 15.0 mph 19.6 mph N/A   Overcast
1:53 AM 37.0 °F 28.9 °F 32.0 °F 82% 30.06 in 10.0 mi NW 12.7 mph - N/A   Overcast
2:15 AM 35.6 °F 28.0 °F 32.0 °F 87% 30.06 in 10.0 mi NW 10.4 mph 19.6 mph N/A   Overcast
2:53 AM 36.0 °F 27.5 °F 32.0 °F 86% 30.08 in 10.0 mi NW 12.7 mph - N/A   Overcast
3:53 AM 36.0 °F 27.1 °F 30.9 °F 82% 30.09 in 9.0 mi NW 13.8 mph - N/A   Overcast
4:06 AM 35.6 °F 27.1 °F 30.2 °F 81% 30.09 in 10.0 mi NNW 12.7 mph - N/A   Overcast
4:53 AM 36.0 °F 28.0 °F 30.9 °F 82% 30.12 in 10.0 mi NW 11.5 mph - N/A   Overcast
5:40 AM 35.6 °F 29.2 °F 30.2 °F 81% 30.13 in 9.0 mi NW 8.1 mph - N/A   Overcast
5:53 AM 35.1 °F 27.4 °F 30.9 °F 85% 30.14 in 9.0 mi NW 10.4 mph - N/A   Overcast
6:53 AM 35.1 °F 27.9 °F 30.0 °F 82% 30.17 in 10.0 mi NW 9.2 mph - N/A   Overcast
7:06 AM 35.6 °F 27.1 °F 30.2 °F 81% 30.17 in 10.0 mi NW 12.7 mph - N/A   Overcast
7:53 AM 35.1 °F 27.9 °F 28.9 °F 78% 30.19 in 9.0 mi NW 9.2 mph - N/A   Overcast
8:53 AM 36.0 °F 29.0 °F 28.9 °F 76% 30.22 in 9.0 mi NW 9.2 mph - N/A   Overcast
9:53 AM 35.1 °F 27.9 °F 30.0 °F 82% 30.24 in 8.0 mi NW 9.2 mph - N/A   Overcast
10:20 AM 35.6 °F 27.1 °F 30.2 °F 81% 30.23 in 8.0 mi NW 12.7 mph - N/A   Overcast
10:53 AM 34.0 °F 25.0 °F 28.9 °F 82% 30.24 in 7.0 mi NW 12.7 mph - N/A   Overcast
11:53 AM 34.0 °F 26.6 °F 28.9 °F 82% 30.22 in 8.0 mi NW 9.2 mph - N/A   Overcast
12:29 PM 33.8 °F 26.4 °F 28.4 °F 81% 30.20 in 9.0 mi NNW 9.2 mph - N/A   Overcast
12:53 PM 34.0 °F 26.6 °F 28.0 °F 79% 30.21 in 9.0 mi NW 9.2 mph - N/A   Overcast
1:53 PM 35.1 °F 28.6 °F 28.9 °F 78% 30.23 in 8.0 mi WNW 8.1 mph - N/A   Overcast
2:53 PM 35.1 °F - 28.0 °F 76% 30.24 in 8.0 mi North - - N/A   Overcast
3:53 PM 34.0 °F 29.8 °F 27.0 °F 75% 30.25 in 9.0 mi WNW 4.6 mph - N/A   Overcast
4:53 PM 34.0 °F 29.8 °F 28.0 °F 79% 30.25 in 10.0 mi WNW 4.6 mph - N/A   Overcast
5:53 PM 34.0 °F 29.8 °F 28.0 °F 79% 30.26 in 10.0 mi West 4.6 mph - N/A   Overcast
6:53 PM 34.0 °F 29.8 °F 28.0 °F 79% 30.28 in 10.0 mi WNW 4.6 mph - N/A   Overcast
7:53 PM 34.0 °F 31.0 °F 28.0 °F 79% 30.28 in 9.0 mi WNW 3.5 mph - N/A   Overcast
8:53 PM 34.0 °F 29.8 °F 28.0 °F 79% 30.28 in 6.0 mi WSW 4.6 mph - N/A   Haze
9:53 PM 32.0 °F 28.7 °F 27.0 °F 82% 30.28 in 6.0 mi West 3.5 mph - N/A   Haze
10:07 PM 32.0 °F 28.7 °F 26.6 °F 80% 30.27 in 7.0 mi SW 3.5 mph - N/A   Scattered Clouds
10:53 PM 30.0 °F 25.2 °F 26.1 °F 85% 30.28 in 7.0 mi SSW 4.6 mph - N/A   Clear
11:53 PM 30.9 °F 26.2 °F 27.0 °F 85% 30.27 in 7.0 mi SSW 4.6 mph - N/A   Clear